CAPE
0 0 0 0 0 0 0 0 0 0 0 0 0 0 0 0 0 0 0 0 0 0 0 0 0 0 0 0 0 0 0 0 0 0 0 0 0 0 0 0 0 0 0
0 0 0 0 0 0 0 0 0 0 0 0 0 0 0 0 0 0 0 0 0 0 0 0 0 0 0 0 0 0 0 0 0 0 0 0 0 0 0 0 0 0 0
0 0 0 0 0 0 0 0 0 0 0 0 0 0 0 0 0 0 0 0 0 0 0 0 0 0 0 0 0 0 0 0 0 0 0 0 0 0 0 0 0 0 0
0 0 0 0 0 0 0 0 0 0 0 0 0 0 0 0 0 0 0 0 0 0 0 0 0 0 0 0 0 0 0 0 0 0 0 0 0 0 0 0 0 0 0
0 0 0 0 0 0 0 0 0 0 0 0 0 0 0 0 0 0 0 0 0 0 0 0 0 0 0 0 0 0 0 0 0 0 0 0 0 0 0 0 0 0 0
0 0 0 0 0 0 0 0 0 0 0 0 0 0 0 0 0 0 0 0 0 0 0 0 0 0 0 0 0 0 0 0 0 0 0 0 0 0 0 0 2 0 0
0 0 0 0 0 0 0 0 0 0 0 0 0 0 0 0 0 0 0 0 0 0 0 0 0 0 0 0 0 0 0 0 0 0 0 0 0 0 0 1 0 0 0
0 0 0 0 0 0 0 0 0 0 0 0 0 0 0 0 0 0 0 0 0 0 0 0 0 0 0 0 0 0 0 0 0 0 0 0 0 0 1 0 0 0 0
0 0 0 0 0 0 0 0 0 0 0 0 0 0 0 0 0 0 0 0 0 0 0 0 0 0 0 0 0 0 0 0 0 0 4 7 22 12 4 0 0 0 0
0 0 0 0 0 0 0 0 0 0 0 0 0 0 0 0 0 0 0 0 0 0 0 0 0 0 0 0 0 0 0 0 0 0 0 0 0 0 0 0 0 0 0
0 0 0 0 0 0 0 0 0 0 0 0 0 0 0 0 0 0 0 0 0 0 0 0 0 0 0 0 0 0 0 0 0 0 0 0 0 0 0 0 0 0 0
0 0 0 0 0 0 0 0 0 0 0 0 0 0 0 0 0 0 0 0 0 0 0 0 0 0 0 0 1 4 9 7 0 0 0 0 0 0 0 0 0 0 0
0 0 0 0 0 0 0 0 0 0 0 0 0 0 0 0 0 0 0 0 0 0 0 0 0 0 5 4 9 11 1 0 0 0 0 0 0 0 0 0 0 0 0
0 0 0 0 0 0 0 0 0 0 0 0 0 0 0 0 0 0 0 0 0 0 0 0 0 1 5 2 0 0 0 0 0 0 0 0 0 0 0 0 0 0 0
0 0 0 0 0 0 0 0 0 0 0 0 0 0 0 0 0 0 0 0 0 0 0 0 0 0 0 0 0 0 0 0 0 0 0 0 0 0 0 0 0 0 0
0 0 0 0 0 0 0 0 0 0 0 0 0 0 0 0 0 0 0 1 1 1 0 0 0 0 0 0 0 0 0 0 0 0 0 0 0 0 0 0 0 0 0
0 0 0 0 0 0 0 0 0 0 1 1 1 0 0 0 0 4 3 1 2 0 0 0 0 0 0 0 0 0 0 0 0 0 0 0 0 0 0 0 0 0 0
0 0 0 0 0 0 0 0 0 0 0 0 0 0 2 2 0 0 0 0 0 0 0 0 0 0 0 0 0 0 0 0 0 0 0 0 0 0 0 0 0 0 0
0 0 0 0 0 0 0 0 0 0 0 0 0 0 0 0 0 0 0 0 0 0 0 0 0 0 0 0 0 0 0 0 0 0 0 0 0 0 0 0 0 0 0
0 0 0 0 0 0 0 0 0 0 0 0 0 0 0 0 0 0 0 0 0 0 0 0 0 0 0 0 0 0 0 0 0 0 0 0 0 0 0 0 0 0 0
0 0 0 0 0 0 0 0 0 0 0 0 0 0 0 0 0 0 0 0 0 0 0 0 0 0 0 0 0 0 0 0 0 0 0 0 0 0 0 0 0 0 0
0 0 0 0 0 0 0 0 0 0 0 0 0 0 0 0 0 0 0 0 0 0 0 0 0 0 0 0 0 0 0 0 0 0 0 0 0 0 0 0 0 0 0
0 0 0 0 0 0 0 0 0 0 0 0 0 0 0 0 0 0 0 0 0 0 0 0 0 0 0 0 0 0 0 0 0 0 0 0 0 0 0 0 0 0 0
0 0 0 0 0 0 0 0 0 0 0 0 0 0 0 0 0 0 0 0 0 0 0 0 0 0 0 0 0 0 0 0 0 0 0 0 0 0 0 0 0 0 0
0 0 0 0 0 0 0 0 0 0 0 0 0 0 0 0 0 0 0 0 0 0 0 0 0 0 0 0 0 0 0 0 0 0 0 0 0 0 0 0 0 0 0
0 0 0 0 0 0 0 0 0 0 0 0 0 0 0 0 0 0 0 0 0 0 0 0 0 0 0 0 0 0 0 0 0 0 0 0 0 0 0 0 0 0 0
CIN
-0 -0 -0 -0 -0 -0 -0 -0 -0 -0 -0 -0 -0 -0 -0 -0 -0 -0 -0 -0 -0 -0 -0 -0 -0 -0 -0 -0 -0 -0 -0 -0 -0 -0 -0 -0 -0 -0 -0 -0 -0 -0 -0
-0 -0 -0 -0 -0 -0 -0 -0 -0 -0 -0 -0 -0 -0 -0 -0 -0 -0 -0 -0 -0 -0 -0 -0 -0 -0 -0 -0 -0 -0 -0 -0 -0 -0 -0 -0 -0 -0 -0 -0 -0 -0 -0
-0 -0 -0 -0 -0 -0 -0 -0 -0 -0 -0 -0 -0 -0 -0 -0 -0 -0 -0 -0 -0 -0 -0 -0 -0 -0 -0 -0 -0 -0 -0 -0 -0 -0 -0 -0 -0 -0 -0 -0 -0 -0 -0
-0 -0 -0 -0 -0 -0 -0 -0 -0 -0 -0 -0 -0 -0 -0 -0 -0 -0 -0 -0 -0 -0 -0 -0 -0 -0 -0 -0 -0 -0 -0 -0 -0 -0 -0 -0 -0 -0 -0 -0 -0 -0 -0
-0 -0 -0 -0 -0 -0 -0 -0 -0 -0 -0 -0 -0 -0 -0 -0 -0 -0 -0 -0 -0 -0 -0 -0 -0 -0 -0 -0 -0 -0 -0 -0 -0 -0 -0 -0 -0 -0 -0 -0 -0 -0 -0
-0 -0 -0 -0 -0 -0 -0 -0 -0 -0 -0 -0 -0 -0 -0 -0 -0 -0 -0 -0 -0 -0 -0 -0 -0 -0 -0 -0 -0 -0 -0 -0 -0 -0 -0 -0 -0 -0 -0 -0 -0 -0 -0
-0 -0 -0 -0 -0 -0 -0 -0 -0 -0 -0 -0 -0 -0 -0 -0 -0 -0 -0 -0 -0 -0 -0 -0 -0 -0 -0 -0 -0 -0 -0 -0 -0 -0 -0 -1 -0 -0 -0 -0 -0 -0 -0
-0 -0 -0 -0 -0 -0 -0 -0 -0 -0 -0 -0 -0 -0 -0 -0 -0 -0 -0 -0 -0 -0 -0 -0 -0 -0 -0 -0 -0 -0 -0 -0 -0 -0 -0 -0 -0 -0 -0 -0 -0 -0 -0
-0 -0 -0 -0 -0 -0 -0 -0 -0 -0 -0 -0 -0 -0 -0 -0 -0 -0 -0 -0 -0 -0 -0 -0 -0 -0 -0 -0 -0 -0 -0 -0 -0 -0 -0 -0 -0 -0 -0 -0 -0 -0 -0
-0 -0 -0 -0 -0 -0 -0 -0 -0 -0 -0 -0 -0 -0 -0 -0 -0 -0 -0 -0 -0 -0 -0 -0 -0 -0 -0 -0 -0 -0 -0 -0 -0 -0 -0 -0 -0 -0 -0 -0 -0 -0 -0
-0 -0 -0 -0 -0 -0 -0 -0 -0 -0 -0 -0 -0 -0 -0 -0 -0 -0 -0 -0 -0 -0 -0 -0 -0 -0 -0 -0 -0 -0 -0 -0 -0 -0 -0 -0 -0 -0 -0 -0 -0 -0 -0
-0 -0 -0 -0 -0 -0 -0 -0 -0 -0 -0 -0 -0 -0 -0 -0 -0 -0 -0 -0 -0 -0 -0 -0 -0 -0 -0 -0 -0 -0 -0 -1 -0 -0 -0 -0 -0 -0 -0 -0 -0 -0 -0
-0 -0 -0 -0 -0 -0 -0 -0 -0 -0 -0 -0 -0 -0 -0 -0 -0 -0 -0 -0 -0 -0 -0 -0 -0 -0 -0 -0 -0 -0 -0 -0 -0 -0 -0 -0 -0 -0 -0 -0 -0 -0 -0
-0 -0 -0 -0 -0 -0 -0 -0 -0 -0 -0 -0 -0 -0 -0 -0 -0 -0 -0 -0 -0 -0 -0 -0 -0 -0 -0 -0 -0 -0 -0 -0 -0 -0 -0 -0 -0 -0 -0 -0 -0 -0 -0
-0 -0 -0 -0 -0 -0 -0 -0 -0 -0 -0 -0 -0 -0 -0 -0 -0 -0 -0 -0 -0 -0 -0 -0 -0 -0 -0 -0 -0 -0 -0 -0 -0 -0 -0 -0 -0 -0 -0 -0 -0 -0 -0
-0 -0 -0 -0 -0 -0 -0 -0 -0 -0 -0 -0 -0 -0 -0 -0 -0 -0 -0 -0 -0 -0 -0 -0 -0 -0 -0 -0 -0 -0 -0 -0 -0 -0 -0 -0 -0 -0 -0 -0 -0 -0 -0
-0 -0 -0 -0 -0 -0 -0 -0 -0 -0 -0 -0 -0 -0 -0 -0 -0 -0 -0 -0 -0 -0 -0 -0 -0 -0 -0 -0 -0 -0 -0 -0 -0 -0 -0 -0 -0 -0 -0 -0 -0 -0 -0
-0 -0 -0 -0 -0 -0 -0 -0 -0 -0 -0 -0 -0 -0 -0 -0 -0 -0 -0 -0 -0 -0 -0 -0 -0 -0 -0 -0 -0 -0 -0 -0 -0 -0 -0 -0 -0 -0 -0 -0 -0 -0 -0
-0 -0 -0 -0 -0 -0 -0 -0 -0 -0 -0 -0 -0 -0 -0 -0 -0 -0 -0 -0 -0 -0 -0 -0 -0 -0 -0 -0 -0 -0 -0 -0 -0 -0 -0 -0 -0 -0 -0 -0 -0 -0 -0
-0 -0 -0 -0 -0 -0 -0 -0 -0 -0 -0 -0 -0 -0 -0 -0 -0 -0 -0 -0 -0 -0 -0 -0 -0 -0 -0 -0 -0 -0 -0 -0 -0 -0 -0 -0 -0 -0 -0 -0 -0 -0 -0
-0 -0 -0 -0 -0 -0 -0 -0 -0 -0 -0 -0 -0 -0 -0 -0 -0 -0 -0 -0 -0 -0 -0 -0 -0 -0 -0 -0 -0 -0 -0 -0 -0 -0 -0 -0 -0 -0 -0 -0 -0 -0 -0
-0 -0 -0 -0 -0 -0 -0 -0 -0 -0 -0 -0 -0 -0 -0 -0 -0 -0 -0 -0 -0 -0 -0 -0 -0 -0 -0 -0 -0 -0 -0 -0 -0 -0 -0 -0 -0 -0 -0 -0 -0 -0 -0
-0 -0 -0 -0 -0 -0 -0 -0 -0 -0 -0 -0 -0 -0 -0 -0 -0 -0 -0 -0 -0 -0 -0 -0 -0 -0 -0 -0 -0 -0 -0 -0 -0 -0 -0 -0 -0 -0 -0 -0 -0 -0 -0
-0 -0 -0 -0 -0 -0 -0 -0 -0 -0 -0 -0 -0 -0 -0 -0 -0 -0 -0 -0 -0 -0 -0 -0 -0 -0 -0 -0 -0 -0 -0 -0 -0 -0 -0 -0 -0 -0 -0 -0 -0 -0 -0
-0 -0 -0 -0 -0 -0 -0 -0 -0 -0 -0 -0 -0 -0 -0 -0 -0 -0 -0 -0 -0 -0 -0 -0 -0 -0 -0 -0 -0 -0 -0 -0 -0 -0 -0 -0 -0 -0 -0 -0 -0 -0 -0
-0 -0 -0 -0 -0 -0 -0 -0 -0 -0 -0 -0 -0 -0 -0 -0 -0 -0 -0 -0 -0 -0 -0 -0 -0 -0 -0 -0 -0 -0 -0 -0 -0 -0 -0 -0 -0 -0 -0 -0 -0 -0 -0
Wind_Speed
13 12 12 12 11 12 12 10 10 11 11 11 11 10 10 9 7 6 6 7 8 6 5 6 5 5 3 3 2 2 3 3 3 4 3 3 2 6 8 6 8 8 9
12 12 12 11 11 12 11 11 10 12 10 11 11 10 9 8 7 8 9 7 8 7 6 6 6 4 5 4 3 4 3 3 3 5 3 2 3 8 8 9 7 7 9
13 13 11 12 12 12 11 10 10 10 10 9 10 10 10 9 9 7 7 7 7 6 6 6 6 6 4 4 4 4 3 3 3 3 5 1 4 5 9 7 9 10 8
12 13 14 15 15 14 12 11 11 10 11 10 9 8 8 8 8 8 7 7 6 6 6 6 6 6 6 6 5 5 4 3 4 4 5 6 5 6 4 8 13 8 11
14 14 14 13 13 12 11 11 10 9 9 9 8 6 6 7 7 8 8 7 7 6 5 5 5 6 10 8 4 5 4 4 3 4 5 6 7 7 7 7 9 11 13
16 14 12 13 11 11 10 11 10 9 8 8 8 8 8 6 13 16 10 8 7 7 7 6 5 6 10 13 13 14 9 5 5 3 6 7 9 6 6 7 9 10 10
14 12 12 13 13 12 12 12 12 11 10 9 8 8 9 7 16 17 17 6 7 7 7 5 5 5 7 5 10 14 14 15 15 7 9 8 7 6 9 11 8 10 12
15 14 14 14 13 12 12 12 11 10 11 10 9 9 8 8 17 18 17 6 5 6 6 6 6 6 7 6 5 7 9 8 10 8 8 8 7 8 8 7 9 9 11
15 15 15 15 14 14 14 13 10 9 8 8 7 8 10 8 19 20 15 6 7 8 6 7 7 8 11 14 8 8 9 10 12 19 20 19 18 16 14 7 5 2 9
15 14 14 14 14 14 13 12 8 8 8 6 7 8 11 10 18 20 17 4 6 6 5 7 14 11 14 17 10 6 10 10 6 7 4 6 6 6 13 7 5 6 6
10 10 10 10 11 11 11 9 9 8 7 7 8 9 9 12 10 20 19 5 8 5 6 6 7 16 19 19 20 10 12 9 11 8 4 2 4 6 4 5 7 6 7
11 11 10 10 8 8 11 9 11 10 10 9 9 8 7 6 11 17 20 21 12 7 8 6 5 15 17 18 16 19 21 18 2 3 2 4 4 3 3 4 7 8 8
11 10 11 11 11 11 11 12 10 11 9 9 8 8 7 5 5 15 16 19 20 13 6 9 15 15 17 16 21 21 16 2 4 3 5 4 2 2 4 5 6 9 9
9 8 8 9 8 8 7 7 7 7 7 7 7 7 3 3 4 4 4 4 10 11 12 7 7 13 13 10 4 8 5 3 5 6 5 4 2 2 2 4 5 5 6
6 6 5 5 7 6 4 5 5 2 7 6 5 5 5 4 5 9 7 3 3 7 4 1 1 2 6 7 8 7 7 6 6 6 6 3 2 2 4 2 3 3 5
6 4 4 4 3 4 5 3 3 4 8 6 7 6 2 5 6 8 10 11 12 13 3 4 3 3 5 5 5 6 4 5 6 6 5 4 5 4 3 1 3 3 5
6 5 4 4 4 4 3 5 5 2 7 6 6 8 9 6 6 3 2 1 10 8 3 2 2 2 3 5 5 6 7 4 5 5 6 4 3 2 2 2 4 4 5
5 6 4 3 4 4 4 4 4 6 5 2 7 8 8 7 6 5 4 9 4 5 2 1 0 1 1 2 2 4 6 3 2 4 3 2 2 2 2 3 4 3 5
5 4 4 4 3 4 4 4 4 4 3 3 1 5 6 7 8 9 11 4 2 1 1 1 1 2 2 2 3 3 4 3 3 3 2 2 1 2 3 4 4 7 7
5 7 5 4 4 4 4 4 4 4 4 3 3 1 1 4 3 3 2 2 2 2 1 1 3 3 3 3 4 3 3 3 3 2 2 3 3 3 5 3 4 5 3
4 4 6 5 4 4 3 4 4 4 4 3 2 0 4 3 3 2 0 0 1 2 3 3 4 4 3 3 3 2 2 3 3 4 4 3 3 3 4 4 4 3 4
4 4 4 4 3 4 4 4 4 4 4 4 1 1 6 3 2 1 2 3 3 4 4 4 4 3 3 3 3 3 3 4 4 5 4 3 3 4 3 4 4 3 3
4 5 4 3 3 4 4 3 3 3 2 2 2 2 1 1 2 2 3 4 4 4 3 3 3 4 3 4 4 4 4 5 5 4 4 4 4 4 3 3 3 3 3
4 4 4 3 3 3 3 3 2 3 2 2 2 2 2 3 3 4 4 4 3 4 3 3 3 5 4 5 4 4 5 5 3 5 6 5 5 4 3 3 4 4 5
4 3 3 2 2 3 2 2 2 2 2 2 3 3 3 3 4 4 4 4 3 3 5 4 3 5 8 9 7 8 7 11 7 6 4 5 6 6 4 4 4 4 6
3 3 2 2 1 1 1 2 3 2 3 3 3 4 4 4 4 4 4 3 4 4 5 4 6 9 9 7 9 10 10 12 10 10 6 5 5 5 4 6 6 5 6
Wind_Direction
165 164 163 164 159 158 166 164 164 157 159 158 153 149 151 155 154 135 131 139 134 135 136 149 159 154 160 156 159 147 168 166 231 276 259 252 276 322 325 310 298 299 313
165 165 168 161 160 164 167 168 164 166 164 160 157 156 158 160 158 153 152 156 146 155 164 164 166 164 182 181 181 192 187 192 222 283 274 299 284 323 305 305 310 315 315
161 163 163 166 166 171 169 167 167 162 164 160 161 164 164 165 165 168 154 154 159 167 171 178 177 177 192 190 197 202 200 227 210 257 291 307 285 304 315 309 322 317 306
168 171 174 175 174 175 171 168 168 168 165 169 171 164 166 167 172 166 157 157 161 177 185 189 187 188 202 198 197 208 213 214 226 244 270 286 293 310 285 326 321 319 312
175 179 183 176 173 165 162 165 164 169 171 167 156 158 162 175 181 171 166 165 172 181 199 206 203 206 220 209 189 204 209 224 226 245 269 282 294 307 318 320 304 309 310
178 182 169 164 161 159 158 163 162 166 158 159 171 170 175 195 198 191 174 176 180 187 203 207 210 221 233 232 232 237 213 198 224 209 262 269 283 299 306 306 301 315 315
175 166 163 161 165 167 162 163 171 172 163 175 173 169 193 205 204 203 199 186 183 200 198 189 207 217 219 222 249 258 256 259 252 240 258 262 279 291 298 297 302 300 289
175 166 164 164 168 164 165 174 171 169 175 178 182 190 199 211 212 213 209 181 197 213 199 192 211 219 218 212 221 236 243 243 249 256 258 264 254 268 267 300 310 304 294
178 175 171 171 171 169 174 174 169 163 167 192 183 193 206 212 215 218 211 182 208 220 203 205 211 227 232 245 233 231 243 245 250 258 263 249 268 294 307 314 301 325 301
180 176 174 176 174 174 172 166 164 175 187 184 193 202 211 220 219 219 215 171 207 219 210 220 221 232 242 246 246 226 253 256 235 244 255 275 283 286 294 288 275 267 278
163 150 154 164 168 165 158 159 161 176 183 182 208 215 212 216 217 220 222 195 217 212 221 232 229 239 252 253 250 231 237 258 252 251 196 232 257 247 247 249 255 265 280
132 139 147 153 155 157 166 170 181 187 196 199 207 221 221 211 210 226 230 231 213 210 229 236 227 243 255 260 261 257 263 270 223 162 205 239 231 231 241 247 258 266 268
144 159 167 170 184 184 182 184 185 189 193 203 209 222 222 183 196 227 233 240 243 245 219 228 242 250 259 263 265 268 272 183 173 191 233 253 211 236 264 274 274 274 274
153 155 152 165 162 169 179 171 175 185 195 202 203 218 173 164 193 206 226 245 258 256 262 287 288 274 261 266 281 277 278 219 216 231 239 225 179 175 235 255 280 295 297
120 126 138 142 158 147 123 161 177 175 191 187 198 170 169 203 211 214 205 206 205 241 252 49 352 225 264 265 264 258 262 256 239 243 243 220 220 225 252 225 267 291 274
118 132 142 140 131 134 137 94 124 159 190 176 165 172 220 198 194 211 223 230 229 229 188 224 236 252 274 282 275 275 247 242 248 252 233 224 229 218 243 240 255 244 280
126 132 124 121 130 138 125 145 135 61 140 165 181 176 183 173 195 176 108 68 49 58 53 53 69 29 339 329 322 312 301 291 276 250 250 229 204 196 218 242 268 275 286
88 94 118 124 129 132 144 149 137 145 138 73 68 92 104 103 87 64 27 63 31 31 71 111 201 267 279 273 282 296 297 291 259 255 239 210 192 193 226 236 261 260 277
88 84 91 92 89 106 108 103 107 113 130 134 46 81 20 77 82 62 66 93 119 64 14 360 250 279 276 269 269 264 272 280 268 255 256 221 220 196 246 247 260 270 278
78 103 100 110 111 106 108 117 116 118 117 115 101 115 8 50 49 35 59 110 118 175 199 223 279 266 259 257 269 265 284 292 279 270 262 245 241 230 251 235 239 265 247
99 91 102 87 91 98 109 114 112 109 115 107 116 255 163 118 137 130 152 283 209 245 246 226 251 246 249 254 259 269 257 266 245 245 240 234 227 235 237 252 261 241 264
68 72 65 86 89 85 92 101 113 120 135 138 143 350 84 90 114 191 236 248 239 228 226 219 247 240 237 237 244 247 252 253 251 252 247 224 230 236 244 245 252 261 261
85 94 86 76 87 96 78 69 94 101 121 125 123 113 78 161 210 225 239 248 242 251 244 219 232 268 254 243 229 227 241 239 234 222 227 230 228 236 216 242 227 247 240
68 71 84 80 76 81 105 115 111 122 131 145 178 211 229 231 233 245 248 254 257 260 246 239 230 242 264 264 252 244 239 245 226 228 225 234 238 233 231 222 220 239 267
71 80 92 121 122 134 119 126 153 175 200 201 211 221 230 235 246 252 255 254 259 267 271 260 245 249 259 263 261 257 253 264 259 216 203 212 231 222 213 214 214 227 252
74 78 84 85 90 133 169 200 222 221 228 235 232 230 241 245 246 246 253 258 259 257 261 256 254 260 264 259 254 256 248 253 246 232 204 211 218 220 204 226 230 234 240